Hourly Weather Roundup
Issued by NWS Central Illinois

Home | Current Version | Previous Version | Text Only | Print | Product List | Glossary On
Versions: 1 2 3 4 5 6 7 8 9 10 11 12 13 14 15 16 17 18 19 20 21 22 23 24 25 26 27 28 29 30 31 32 33 34 35 36 37 38 39 40 41 42 43 44 45 46 47 48 49 50
000
NZUS43 KILX 250010
HWRILX

AREA WEATHER ROUNDUP
NATIONAL WEATHER SERVICE, LINCOLN IL
700 PM CDT FRI OCT 24 2014


CITY           SKY/WX    TMP DP  RH WIND       PRES   REMARKS
BLOOMINGTON    MOCLDY    55  52  90 S8        30.00F FOG
6HR MIN TEMP:  55; 6HR MAX TEMP:  69; 6HR PCP: TRACE;

CHAMPAIGN      PTCLDY    55  53  93 SW7       30.01S
6HR MIN TEMP:  55; 6HR MAX TEMP:  70;

DECATUR        MOCLDY    58  53  84 S7        30.01S
6HR MIN TEMP:  58; 6HR MAX TEMP:  65;

FLORA          PTCLDY    56  50  79 CALM      30.04S
6HR MIN TEMP:  56; 6HR MAX TEMP:  70;

GALESBURG      CLOUDY    63  54  71 SE5       29.94R
JACKSONVILLE   PTCLDY    65  50  58 S7        29.97S
6HR MIN TEMP:  65; 6HR MAX TEMP:  72;

LACON          MOCLDY    58  46  65 CALM      29.95S
6HR MIN TEMP:  56; 6HR MAX TEMP:  67;

LAWRENCEVILLE  PTCLDY    59  51  75 S5        30.03S
6HR MIN TEMP:  59; 6HR MAX TEMP:  71;

LITCHFIELD     PTCLDY    58  49  70 S8        30.00F
$$


CITY           SKY/WX    TMP DP  RH WIND       PRES   REMARKS
LINCOLN        MOCLDY    57  52  84 S3        29.97S
6HR MIN TEMP:  57; 6HR MAX TEMP:  67;

MACOMB         PTCLDY    64  53  67 S8        29.96R
MATTOON        PTCLDY    59  53  80 SW5       30.01F
6HR MIN TEMP:  58; 6HR MAX TEMP:  69;

MT CARMEL AP   PTCLDY    63  52  67 CALM      30.04R
OLNEY-NOBLE AP CLEAR     55  50  82 CALM      30.03S
PARIS          PTCLDY    58  53  82 W5        30.03R
6HR MIN TEMP:  58; 6HR MAX TEMP:  71;

PEORIA         MOCLDY    62  51  67 SE7       29.96F
6HR MIN TEMP:  61; 6HR MAX TEMP:  66;

PONTIAC        MOCLDY    59  50  72 SW6       29.98F
RANTOUL        CLEAR     58  53  84 SW7       30.00S
6HR MIN TEMP:  58; 6HR MAX TEMP:  71;

ROBINSON       FAIR      61  53  74 S3        30.04R
6HR MIN TEMP:  60; 6HR MAX TEMP:  73;

SPRINGFIELD    MOCLDY    60  50  69 S7        29.98F
6HR MIN TEMP:  59; 6HR MAX TEMP:  71;

TAYLORVILLE    MOCLDY    57  52  82 SE7       30.00S
$$

...REGIONAL REPORTS...


CITY           SKY/WX    TMP DP  RH WIND       PRES   REMARKS
CHICAGO O`HARE MOCLDY    61  46  57 S6        29.94S
KANKAKEE       PTCLDY    56  45  65 SW5       29.97S
MOLINE         CLOUDY    66  54  65 W9        29.94R
MOUNT VERNON   CLEAR     57  50  77 CALM      30.05S
PITTSFIELD     MOCLDY    64  52  63 S5        29.98S
QUINCY         MOCLDY    65  55  70 S9        29.94F
ROCKFORD       MOCLDY    57  47  69 S8        29.95S
$$


CITY           SKY/WX    TMP DP  RH WIND       PRES   REMARKS
BURLINGTON     MOCLDY    63  57  81 SW8       29.93R
CEDAR RAPIDS   MOCLDY    58  58 100 S5        29.93R FOG
DES MOINES     MOCLDY    62  59  90 S5        29.92R
KIRKSVILLE     MOCLDY    65  60  84 S7        29.94R
OTTUMWA        MOCLDY    63  59  87 NW5       29.94R
ST LOUIS       MOCLDY    70  49  47 S5        30.00S
$$


CITY           SKY/WX    TMP DP  RH WIND       PRES   REMARKS
TERRE HAUTE    CLEAR     56  50  80 S3        30.02S
EVANSVILLE     PTCLDY    61  53  75 CALM      30.05R
INDIANAPOLIS   MOCLDY    59  50  72 S6        30.02S
LAFAYETTE      PTCLDY    55  50  83 CALM      30.00S
MADISON        CLOUDY    60  51  72 S3        29.93R
MILWAUKEE      MOCLDY    54  50  86 S6        29.94S
$$





USA.gov is the U.S. government's official web portal to all federal, state and local government web resources and services.